Regional Weather Roundup
Issued by NWS Newport/Morehead, NC

Current Version | Previous Version | Graphics & Text | Print | Product List | Glossary Off
Versions: 1 2 3 4 5 6 7 8 9 10 11 12 13 14 15 16 17 18 19 20 21 22 23 24 25 26 27 28 29 30 31 32 33 34 35 36 37 38 39 40 41 42 43 44 45 46 47 48 49 50

000
ASUS42 KMHX 231014
RWRMHX
WEATHER ROUNDUP FOR EASTERN NORTH CAROLINA
NATIONAL WEATHER SERVICE NEWPORT/MOREHEAD CITY NC
500 AM EST THU NOV 23 2017

NOTE: "FAIR" INDICATES FEW OR NO CLOUDS BELOW 12,000 FEET
WITH NO SIGNIFICANT WEATHER AND/OR OBSTRUCTIONS TO VISIBILITY

NCZ015>017-031-032-045>047-102-103-231100-
NORTH COAST

CITY           SKY/WX    TMP DP  RH WIND       PRES   REMARKS
EDENTON        PTCLDY    37  32  84 CALM      30.14S
ELIZABETH CITY CLOUDY    40  33  76 N13       30.13S
KITTY HAWK     PTSUNNY   46  36  66 N8        30.09S
MANTEO         CLOUDY    46  37  69 NE9       30.11R

$$

NCZ045>047-081-094-103-104-231100-
CENTRAL COAST

CITY           SKY/WX    TMP DP  RH WIND       PRES   REMARKS
FRISCO         MOCLDY    51  41  68 VRB7      30.09S

$$

NCZ095-097-098-100-101-231100-
SOUTHERN COAST

CITY           SKY/WX    TMP DP  RH WIND       PRES   REMARKS
BEAUFORT       CLOUDY    45  39  79 N8        30.10R
CEDAR ISLAND   NOT AVBL
JACKSONVILLE   PTCLDY    41  35  79 N8        30.12R
PINEY ISLAND   NOT AVBL
WILMINGTON     PTCLDY    44  35  70 NE10      30.11S


$$

NCZ011>013-027>030-043-044-078>080-089-090>093-098-231100-
COASTAL PLAIN

CITY           SKY/WX    TMP DP  RH WIND       PRES   REMARKS
AHOSKIE        PTCLDY    34  27  75 N3        30.16S
CLINTON        PTCLDY    42  33  70 NE3       30.14R
ELIZABETHTOWN  NOT AVBL
GOLDSBORO      CLOUDY    40  29  65 N7        30.13R
GREENVILLE     PTCLDY    36  30  80 CALM      30.16R
HAVELOCK       NOT AVBL
KENANSVILLE    PTCLDY    39  30  70 N3        30.14R
KINSTON        MOCLDY    38  31  76 N5        30.15R
NEW BERN       PTCLDY    39  34  82 N9        30.13S
RICHLANDS      CLOUDY    40  32  73 N6        30.13S
ROCKY MOUNT    CLOUDY    35  31  85 N6        30.16R
WASHINGTON     CLOUDY    37  31  79 N3        30.14S
WHITEVILLE     MOCLDY    43  34  70 NE5       30.11S

$$

AMZ130-135-150-152-154-156-158-170-250-252-270-ANZ085-086-088-633-658-670-231100-
MARINE OBSERVATIONS

STATION/POSITION TIME  TEMP    WIND        PRES    WAVE   SWELL
                       AIR SEA DIR/SP/G            HT/PER HT/PER
                 (UTC) (F)     (DEG/KT/KT) (MB)    (FT/S) (FT/S)
CHESAPEAKE LIGHT NOT AVBL
64 E VA BEACH    0950   48 61  350/ 14/ 17 1019.4    7/ 8   5/ 8
DUCK             0948   47 59   10/ 14/ 19 1018.8
2 E DUCK         1000      60                N/A     5/ 9   2/11
OREGON INLET     0942   49 59  360/ 11/ 14 1019.0
13E OREGON INLT  0948      63                N/A     7/ 7   7/ 7
HATTERAS CG      0948   51 59   20/ 15/ 19 1018.6
DIAMOND BUOY     0950   56 72   10/ 16/ 21 1018.5    7/ 9   5/ 9
CAPE LOOKOUT     1000           10/ 13/ 17 1019.1
BEAUFORT LAB     0948   46 59   10/ 10/ 12 1019.2
30 SE NEW RVR IN 0908   54 67   60/ 17/ 21 1018.6
30 SE NEW RVR IN 1000      67                N/A     7/ 9   2/11
27 SE WRIGHTSVLE 0908   56 69   60/ 21/ 31 1018.3
5 SE WRIGHTSVLE  0908   53 63   40/ 16/ 21 1018.6
225 S CAPE HAT   0950   72 76   30/ 17/ 21 1013.7    6/ 9   3/ 9
41 SE CHARLESTON 0950           40/ 17/ 21 1016.0    6/ 6   3/ 9

$$




USA.gov is the U.S. government's official web portal to all federal, state and local government web resources and services.